Location: Bastrop State Park
(30.1090°N, 97.2819°W)
Time: 18:46:53
(UTC-06:00)

ISS - Visible Passes

Search period start: 22 February 2018 00:00
Search period end: 04 March 2018 00:00
Orbit: 402 x 407 km, 51.6° (Epoch: 23 February)

Date Brightness Start Highest point End Pass type
(mag) Time Alt. Az. Time Alt. Az. Time Alt. Az.
23 Feb -1.8 06:29:11 10° SSW 06:32:07 31° SE 06:35:04 10° ENE visible
24 Feb -0.8 05:38:12 10° SSE 05:40:02 14° SE 05:41:53 10° E visible
25 Feb -3.9 06:20:43 10° SW 06:23:58 76° NW 06:27:14 10° NE visible
26 Feb -2.7 05:30:36 29° S 05:31:46 43° SE 05:34:53 10° ENE visible
27 Feb -0.5 04:41:17 13° E 04:41:17 13° E 04:42:00 10° E visible
27 Feb -2.6 06:13:59 15° W 06:15:56 25° NW 06:18:44 10° NNE visible
28 Feb -2.9 05:24:26 40° N 05:24:26 40° N 05:26:48 10° NE visible
01 Mar -1.5 06:07:21 11° NW 06:08:02 11° NW 06:09:12 10° NNW visible
02 Mar -1.2 05:17:25 13° N 05:17:25 13° N 05:18:03 10° NNE visible
